Location: R�serve Fauniques des Laurentides
(47.3100°N, 71.1900°W)
Time: 01:17:14
(UTC-04:00)

Cosmos 1674 - Visible Passes

Search period start: 20 April 2018 00:00
Search period end: 30 April 2018 00:00
Orbit: 496 x 521 km, 82.5° (Epoch: 19 April)

Date Brightness Start Highest point End Pass type
(mag) Time Alt. Az. Time Alt. Az. Time Alt. Az.
25 Apr 5.1 04:53:09 10° SE 04:56:17 25° E 04:59:25 10° NE visible
26 Apr 5.5 04:36:27 10° SE 04:39:15 20° E 04:42:03 10° NE visible
27 Apr 5.6 04:19:52 10° SE 04:22:14 16° E 04:24:36 10° NE visible
28 Apr 5.7 04:03:31 10° ESE 04:05:14 13° E 04:06:58 10° ENE visible
29 Apr 6.1 03:48:09 10° E 03:48:15 10° E 03:48:20 10° E visible
